THOR ABLESTAR DEB, 48823

Orbit data source: Space-Track

THOR ABLESTAR DEB, 48823 is space debris in LEO originally from a launch on Thu, 29 Jun 1961 UTC launched from the Air Force Eastern Test Range (AFETR). Debris objects in space refer to the collection of defunct objects orbiting the Earth. Examples of debris include non-operational satellites, rocket bodies, and fragments generated from explosions, collisions, or faulty payload assembly.

Loading next visibility...
Identifier
48823, 1961-015NB
Orbit
LEO
Country
Flag of USUS
Related business
Manufacturer
Unknown
Mission
Spacecraft
Bus & Motor
Unknown
Mass
Unknown
Launch date (UTC)
1961-06-29 (65 years ago)
Launch vehicle
Unknown
Launch site
Air Force Eastern Test Range (AFETR)
Object type
Payload
Rocket body
Debris
Shape & HBR
Unknown shape, 0.1 m
Radar Cross Section
Small (<0.1 m²)

Expand to show TLE details & history
Last TLE update: 2 weeks ago

TLE from 2 weeks ago
0 THOR ABLESTAR DEB
1 48823U 61015NB  26183.63571552  .00000606  00000-0  22181-3 0  9991
2 48823  66.6585 316.2970 0105464  66.5451 294.6694 14.36642666659934
Epoch: 2026-07-02T15:15Z
TLE epoch observation values (Epoch: 2026-07-02T15:15:25.820Z)
Latitude
-0.00008°
Longitude
166.76411°
Altitude
740.917 km
Speed
7.501 km/s
True Right ascension
21h 05m 11s
True Declination
0° 00' 00"
Sunlit
Object was in full shadow at epoch
Visualization orbit readout
Latitude
Unknown
Longitude
Unknown
Altitude
Unknown
Speed
Unknown
Apparent Right ascension
Unknown
Apparent Declination
Unknown
Sunlit
N/A
Visualization observer readout
Local Sidereal Time
04:36:55
Azimuth
Unknown
Elevation
Unknown
Doppler factor
Unknown
Orbital elements
Apogee altitude
843.353 km
Perigee altitude
692.621 km
Semi-major axis
7,146.124 km
Eccentricity
0.01055
Inclination
66.6585°
RAAN
316.297°
Arg. of periapsis
66.5451°
True anomaly
293.56517°
Mean anomaly
294.6694°
Eccentric anomaly
294.11788°
Mean motion
3.59284 °/min
Orbital period
100.2 mins
BSTAR
0.00022181
Loading maneuver chart data...
Computing Atmospheric mass density...
Loading historical data...
Loading historical data...
Loading historical data...
Loading historical data...
Loading historical data...
Loading historical data...
Loading historical data...

Documentation

Showing up to 5 results
|